Location: Krakow
(50.0830°N, 19.9170°E)
Time: 18:29:32
(UTC+02:00)

Tiros 1 - All Passes

Search period start: 18 July 2024 00:00
Search period end: 28 July 2024 00:00
Orbit: 624 x 656 km, 48.4° (Epoch: 18 July)

Date Brightness Start Highest point End Pass type
(mag) Time Alt. Az. Time Alt. Az. Time Alt. Az.
18 Jul - 13:28:44 10° SSE 13:29:40 10° SE 13:30:34 10° ESE daylight
18 Jul - 15:06:29 10° SW 15:10:44 35° SSE 15:14:58 10° E daylight
18 Jul - 16:47:48 10° WSW 16:52:26 69° S 16:57:02 10° E daylight
18 Jul - 18:29:45 10° W 18:34:20 63° SSW 18:38:54 10° ESE daylight
18 Jul - 20:11:59 10° W 20:15:55 28° SSW 20:19:49 10° SSE daylight
19 Jul - 13:49:35 10° S 13:52:57 20° SE 13:56:19 10° E daylight
19 Jul - 15:29:49 10° WSW 15:34:21 52° SSE 15:38:52 10° E daylight
19 Jul - 17:11:34 10° W 17:16:13 73° S 17:20:49 10° E daylight
19 Jul - 18:53:36 10° W 18:58:02 47° SSW 19:02:26 10° SE daylight
19 Jul - 20:36:26 10° W 20:39:19 17° SW 20:42:12 10° S daylight
20 Jul - 14:12:14 10° SW 14:16:25 32° SSE 14:20:34 10° E daylight
20 Jul - 15:53:26 10° WSW 15:58:04 67° S 16:02:40 10° E daylight
20 Jul - 17:35:22 10° W 17:39:59 66° S 17:44:33 10° ESE daylight
20 Jul - 19:17:33 10° W 19:21:37 31° SSW 19:25:38 10° SSE daylight
21 Jul - 12:55:32 10° S 12:58:40 18° SE 13:01:47 10° E daylight
21 Jul - 14:35:29 10° SW 14:40:00 49° SSE 14:44:29 10° E daylight
21 Jul - 16:17:10 10° W 16:21:50 73° S 16:26:28 10° E daylight
21 Jul - 17:59:12 10° W 18:03:41 50° SSW 18:08:09 10° SE daylight
21 Jul - 19:41:50 10° W 19:45:02 19° SW 19:48:12 10° S daylight
22 Jul - 13:17:59 10° SSW 13:22:04 30° SSE 13:26:08 10° E daylight
22 Jul - 14:59:03 10° WSW 15:03:41 65° SSE 15:08:17 10° E daylight
22 Jul - 16:40:58 10° W 16:45:37 68° S 16:50:11 10° ESE daylight
22 Jul - 18:23:06 10° W 18:27:17 34° SSW 18:31:26 10° SE daylight
23 Jul - 12:01:31 10° S 12:04:22 16° SE 12:07:11 10° ESE daylight
23 Jul - 13:41:09 10° SW 13:45:38 45° SSE 13:50:05 10° E daylight
23 Jul - 15:22:46 10° W 15:27:27 73° S 15:32:05 10° E daylight
23 Jul - 17:04:46 10° W 17:09:19 54° SSW 17:13:49 10° ESE daylight
23 Jul - 18:47:17 10° W 18:50:44 21° SW 18:54:08 10° SSE daylight
24 Jul - 12:23:46 10° SSW 12:27:44 27° SSE 12:31:40 10° E daylight
24 Jul - 14:04:39 10° WSW 14:09:18 62° SSE 14:13:54 10° E daylight
24 Jul - 15:46:33 10° W 15:51:13 70° S 15:55:49 10° ESE daylight
24 Jul - 17:28:39 10° W 17:32:56 37° SSW 17:37:10 10° SE daylight
24 Jul - 19:12:38 10° WSW 19:14:00 11° SW 19:15:24 10° SSW daylight
25 Jul - 11:07:35 10° S 11:10:03 14° SE 11:12:29 10° ESE daylight
25 Jul - 12:46:48 10° SW 12:51:15 42° SSE 12:55:40 10° E daylight
25 Jul - 14:28:21 10° W 14:33:02 72° S 14:37:40 10° E daylight
25 Jul - 16:10:20 10° W 16:14:56 57° SSW 16:19:28 10° ESE daylight
25 Jul - 17:52:44 10° W 17:56:24 23° SW 18:00:01 10° SSE daylight
26 Jul - 11:29:33 10° SSW 11:33:22 25° SE 11:37:11 10° E daylight
26 Jul - 13:10:15 10° WSW 13:14:53 59° SSE 13:19:29 10° E daylight
26 Jul - 14:52:06 10° W 14:56:48 72° S 15:01:26 10° ESE daylight
26 Jul - 16:34:11 10° W 16:38:33 40° SSW 16:42:53 10° SE daylight
26 Jul - 18:17:35 10° WSW 18:19:42 13° SW 18:21:48 10° SSW daylight
27 Jul - 10:13:46 10° SSE 10:15:42 12° SE 10:17:38 10° ESE daylight
27 Jul - 11:52:28 10° SW 11:56:51 39° SSE 12:01:13 10° E daylight
27 Jul - 13:33:54 10° WSW 13:38:36 71° S 13:43:16 10° E daylight
27 Jul - 15:15:53 10° W 15:20:32 61° SSW 15:25:06 10° ESE daylight
27 Jul - 16:58:11 10° W 17:02:02 26° SSW 17:05:51 10° SSE daylight
